STARLINK-32778, 62603

Orbit data source: Space-Track

STARLINK-32778, 62603 is a payload satellite owned by SpaceX/Seattle (US) in LEO that was launched on Mon, 13 Jan 2025 UTC via an FALCON 9 launch vehicle from the Air Force Eastern Test Range (AFETR). Payload-class satellites include a variety of spacecraft equipped with specific instruments for various scientific and technological missions. These include communications satellites like Starlink; space stations such as the ISS; scientific satellites like the Hubble; Earth observation satellites from companies like Planet Labs, Umbra, and HawkEye 360; GPS; miniature CubeSats for education and research; and military/defense satellites.

Loading next visibility...
Identifier
62603, 2025-008S
Orbit
LEO
Country
Flag of USUS
Related business
Manufacturer
SpaceX/Seattle
Mission
Operational Commercial Communications
Bus & Motor
STARLINK V2M, Unknown motor
Mass
730 kg wet, ~700 kg dry
Launch date (UTC)
2025-01-13 (10 months ago)
Launch vehicle
FALCON 9
Launch site
Air Force Eastern Test Range (AFETR)
Object type
Payload
Rocket body
Debris
Shape & HBR
Box + 2 Pan, 17.7 m
Radar Cross Section
33.884 m², Large (>1 m²)

Expand to show TLE details & history
Last TLE update: 21 hours ago

TLE from 21 hours ago
0 STARLINK-32778
1 62603U 25008S   25310.14079154  .00041885  00000-0  15204-2 0  9994
2 62603  43.0014 256.1433 0000684 237.7986 122.2800 15.27636644 46666
Epoch: 2025-11-06T03:22Z
TLE epoch observation values (Epoch: 2025-11-06T03:22:44.389Z)
Latitude
0.00004°
Longitude
159.85501°
Altitude
482.906 km
Speed
7.626 km/s
True Right ascension
17h 04m 34s
True Declination
0° 00' 00"
Sunlit
Object was in daylight at epoch
Visualization orbit readout
Latitude
Unknown
Longitude
Unknown
Altitude
Unknown
Speed
Unknown
Apparent Right ascension
Unknown
Apparent Declination
Unknown
Sunlit
N/A
Visualization observer readout
Local Sidereal Time
20:19:39
Azimuth
Unknown
Elevation
Unknown
Doppler factor
Unknown
Orbital elements
Apogee altitude
485.294 km
Perigee altitude
484.355 km
Semi-major axis
6,862.961 km
Eccentricity
0.00007
Inclination
43.0014°
RAAN
256.1433°
Arg. of periapsis
237.7986°
True anomaly
122.28663°
Mean anomaly
122.28°
Eccentric anomaly
122.28331°
Mean motion
3.81747 °/min
Orbital period
94.3 mins
BSTAR
0.0015204
Loading maneuver chart data...
Computing Atmospheric mass density...
Loading historical data...
Loading historical data...
Loading historical data...
Loading historical data...
Loading historical data...
Loading historical data...
Loading historical data...

Documentation

Showing up to 5 results
|